Time,TemperatureF,DewpointF,PressureIn,WindDirection,WindDirectionDegrees,WindSpeedMPH,WindSpeedGustMPH,Humidity,HourlyPrecipIn,Conditions,Clouds,dailyrainin,SoftwareType,DateUTC
2013-05-10 00:00:00,61.2,24.0,29.87,ESE,104,4.0,8.0,24,0.00,,,-99.99,Weather View 32 v60,2013-05-10 04:00:00,
2013-05-10 00:05:00,61.0,23.9,29.87,North,5,0.0,8.0,24,0.00,,,-99.99,Weather View 32 v60,2013-05-10 04:05:00,
2013-05-10 00:08:00,61.0,23.9,29.87,North,5,0.0,8.0,24,0.00,,,-99.99,Weather View 32 v60,2013-05-10 04:08:00,
2013-05-10 00:10:00,60.6,24.5,29.87,ENE,75,0.0,8.0,25,0.00,,,-99.99,Weather View 32 v60,2013-05-10 04:10:00,
2013-05-10 00:15:00,60.4,24.4,29.87,North,353,3.0,8.0,25,0.00,,,-99.99,Weather View 32 v60,2013-05-10 04:15:00,
2013-05-10 00:20:00,60.4,24.4,29.87,NE,44,2.0,8.0,25,0.00,,,-99.99,Weather View 32 v60,2013-05-10 04:20:00,
2013-05-10 00:25:00,60.3,24.2,29.87,ENE,73,3.0,8.0,25,0.00,,,-99.99,Weather View 32 v60,2013-05-10 04:25:00,
2013-05-10 00:30:00,60.1,24.1,29.87,NE,39,3.0,8.0,25,0.00,,,-99.99,Weather View 32 v60,2013-05-10 04:30:00,
2013-05-10 00:35:00,59.7,23.8,29.87,ENE,60,0.0,8.0,25,0.00,,,-99.99,Weather View 32 v60,2013-05-10 04:35:00,
2013-05-10 00:40:00,59.7,23.8,29.87,NE,51,0.0,8.0,25,0.00,,,-99.99,Weather View 32 v60,2013-05-10 04:40:00,
2013-05-10 00:45:00,59.5,24.6,29.87,SE,139,0.0,8.0,26,0.00,,,-99.99,Weather View 32 v60,2013-05-10 04:45:00,
2013-05-10 00:50:00,59.4,24.4,29.90,NNE,26,3.0,8.0,26,0.00,,,-99.99,Weather View 32 v60,2013-05-10 04:50:00,
2013-05-10 00:55:00,59.2,24.2,29.90,East,93,0.0,8.0,26,0.00,,,-99.99,Weather View 32 v60,2013-05-10 04:55:00,
2013-05-10 01:00:00,59.2,25.1,29.90,East,101,4.0,8.0,27,0.00,,,-99.99,Weather View 32 v60,2013-05-10 05:00:00,
2013-05-10 01:05:00,59.0,25.0,29.90,ENE,68,3.0,8.0,27,0.00,,,-99.99,Weather View 32 v60,2013-05-10 05:05:00,
2013-05-10 01:10:00,58.8,25.7,29.90,East,88,3.0,8.0,28,0.00,,,-99.99,Weather View 32 v60,2013-05-10 05:10:00,
2013-05-10 01:15:00,58.8,26.6,29.90,East,88,3.0,8.0,29,0.00,,,-99.99,Weather View 32 v60,2013-05-10 05:15:00,
2013-05-10 01:20:00,58.6,25.6,29.90,East,82,0.0,8.0,28,0.00,,,-99.99,Weather View 32 v60,2013-05-10 05:20:00,
2013-05-10 01:25:00,58.5,26.3,29.90,ENE,61,3.0,8.0,29,0.00,,,-99.99,Weather View 32 v60,2013-05-10 05:25:00,
2013-05-10 01:30:00,58.5,26.3,29.90,East,87,4.0,8.0,29,0.00,,,-99.99,Weather View 32 v60,2013-05-10 05:30:00,
2013-05-10 01:35:00,58.3,26.9,29.90,East,93,0.0,6.0,30,0.00,,,-99.99,Weather View 32 v60,2013-05-10 05:35:00,
2013-05-10 01:40:00,58.3,26.9,29.90,East,83,4.0,6.0,30,0.00,,,-99.99,Weather View 32 v60,2013-05-10 05:40:00,
2013-05-10 01:45:00,58.1,26.8,29.90,ENE,76,4.0,6.0,30,0.00,,,-99.99,Weather View 32 v60,2013-05-10 05:45:00,
2013-05-10 01:50:00,57.9,27.4,29.87,NE,36,4.0,6.0,31,0.00,,,-99.99,Weather View 32 v60,2013-05-10 05:50:00,
2013-05-10 01:55:00,57.9,28.2,29.87,NE,55,3.0,6.0,32,0.00,,,-99.99,Weather View 32 v60,2013-05-10 05:55:00,
2013-05-10 02:05:00,57.6,29.3,29.87,NE,50,0.0,6.0,34,0.00,,,-99.99,Weather View 32 v60,2013-05-10 06:05:00,
2013-05-10 02:10:00,57.6,30.1,29.87,ENE,68,0.0,6.0,35,0.00,,,-99.99,Weather View 32 v60,2013-05-10 06:10:00,
2013-05-10 02:15:00,57.4,29.9,29.87,NE,46,3.0,6.0,35,0.00,,,-99.99,Weather View 32 v60,2013-05-10 06:15:00,
2013-05-10 02:20:00,57.2,29.7,29.87,NE,45,5.0,6.0,35,0.00,,,-99.99,Weather View 32 v60,2013-05-10 06:20:00,
2013-05-10 02:25:00,57.0,30.3,29.87,ENE,73,0.0,6.0,36,0.00,,,-99.99,Weather View 32 v60,2013-05-10 06:25:00,
2013-05-10 02:30:00,57.0,30.3,29.87,East,82,0.0,6.0,36,0.00,,,-99.99,Weather View 32 v60,2013-05-10 06:30:00,
2013-05-10 02:35:00,56.8,30.1,29.87,NE,50,0.0,6.0,36,0.00,,,-99.99,Weather View 32 v60,2013-05-10 06:35:00,
2013-05-10 02:40:00,56.7,30.6,29.87,East,100,0.0,6.0,37,0.00,,,-99.99,Weather View 32 v60,2013-05-10 06:40:00,
2013-05-10 02:50:00,56.5,30.5,29.84,NE,34,2.0,8.0,37,0.00,,,-99.99,Weather View 32 v60,2013-05-10 06:50:00,
2013-05-10 02:55:00,56.3,31.0,29.84,ENE,60,8.0,8.0,38,0.00,,,-99.99,Weather View 32 v60,2013-05-10 06:55:00,
2013-05-10 03:00:00,56.1,30.8,29.84,ENE,76,4.0,8.0,38,0.00,,,-99.99,Weather View 32 v60,2013-05-10 07:00:00,
2013-05-10 03:05:00,55.9,31.3,29.84,ENE,74,3.0,8.0,39,0.00,,,-99.99,Weather View 32 v60,2013-05-10 07:05:00,
2013-05-10 03:10:00,55.8,31.1,29.84,East,91,4.0,8.0,39,0.00,,,-99.99,Weather View 32 v60,2013-05-10 07:10:00,
2013-05-10 03:20:00,55.4,32.0,29.84,ENE,72,6.0,8.0,41,0.00,,,-99.99,Weather View 32 v60,2013-05-10 07:20:00,
2013-05-10 03:25:00,55.0,32.3,29.84,NE,41,5.0,8.0,42,0.00,,,-99.99,Weather View 32 v60,2013-05-10 07:25:00,
2013-05-10 03:30:00,54.9,32.7,29.84,East,98,3.0,9.0,43,0.00,,,-99.99,Weather View 32 v60,2013-05-10 07:30:00,
2013-05-10 03:40:00,54.5,33.0,29.84,NE,44,4.0,9.0,44,0.00,,,-99.99,Weather View 32 v60,2013-05-10 07:40:00,
2013-05-10 03:45:00,54.3,32.8,29.84,ENE,67,2.0,9.0,44,0.00,,,-99.99,Weather View 32 v60,2013-05-10 07:45:00,
2013-05-10 03:50:00,54.0,32.5,29.84,East,95,3.0,9.0,44,0.00,,,-99.99,Weather View 32 v60,2013-05-10 07:50:00,
2013-05-10 03:55:00,54.0,33.1,29.84,NE,47,4.0,9.0,45,0.00,,,-99.99,Weather View 32 v60,2013-05-10 07:55:00,
2013-05-10 04:00:00,53.8,32.9,29.84,NE,41,4.0,9.0,45,0.00,,,-99.99,Weather View 32 v60,2013-05-10 08:00:00,
2013-05-10 04:05:00,53.6,33.3,29.84,NE,54,6.0,11.0,46,0.00,,,-99.99,Weather View 32 v60,2013-05-10 08:05:00,
2013-05-10 04:10:00,53.2,33.5,29.84,NE,34,4.0,11.0,47,0.00,,,-99.99,Weather View 32 v60,2013-05-10 08:10:00,
2013-05-10 04:15:00,53.1,33.3,29.84,NE,47,6.0,11.0,47,0.00,,,-99.99,Weather View 32 v60,2013-05-10 08:15:00,
2013-05-10 04:20:00,52.9,33.7,29.84,ENE,57,3.0,11.0,48,0.00,,,-99.99,Weather View 32 v60,2013-05-10 08:20:00,
2013-05-10 04:25:00,52.7,33.5,29.84,ENE,74,5.0,11.0,48,0.00,,,-99.99,Weather View 32 v60,2013-05-10 08:25:00,
2013-05-10 04:30:00,52.5,33.4,29.84,ENE,62,5.0,11.0,48,0.00,,,-99.99,Weather View 32 v60,2013-05-10 08:30:00,
2013-05-10 04:35:00,52.3,33.7,29.84,ENE,65,5.0,11.0,49,0.00,,,-99.99,Weather View 32 v60,2013-05-10 08:35:00,
2013-05-10 04:40:00,52.2,33.5,29.84,East,93,9.0,11.0,49,0.00,,,-99.99,Weather View 32 v60,2013-05-10 08:40:00,
2013-05-10 04:45:00,52.0,33.4,29.84,NNE,30,4.0,11.0,49,0.00,,,-99.99,Weather View 32 v60,2013-05-10 08:45:00,
2013-05-10 04:50:00,51.8,33.2,29.81,ENE,61,8.0,11.0,49,0.00,,,-99.99,Weather View 32 v60,2013-05-10 08:50:00,
2013-05-10 04:55:00,51.6,33.0,29.81,NE,36,8.0,13.0,49,0.00,,,-99.99,Weather View 32 v60,2013-05-10 08:55:00,
2013-05-10 05:00:00,51.3,32.7,29.81,East,89,8.0,13.0,49,0.00,,,-99.99,Weather View 32 v60,2013-05-10 09:00:00,
2013-05-10 05:05:00,51.1,32.5,29.81,NE,47,5.0,13.0,49,0.00,,,-99.99,Weather View 32 v60,2013-05-10 09:05:00,
2013-05-10 05:11:00,50.9,32.9,29.81,ENE,60,9.0,13.0,50,0.00,,,-99.99,Weather View 32 v60,2013-05-10 09:11:00,
2013-05-10 05:20:00,50.2,31.7,29.81,NE,41,4.0,13.0,49,0.00,,,-99.99,Weather View 32 v60,2013-05-10 09:20:00,
2013-05-10 05:25:00,49.6,31.2,29.81,SE,138,8.0,13.0,49,0.00,,,-99.99,Weather View 32 v60,2013-05-10 09:25:00,
2013-05-10 05:30:00,49.3,30.9,29.81,ENE,69,5.0,13.0,49,0.00,,,-99.99,Weather View 32 v60,2013-05-10 09:30:00,
2013-05-10 05:35:00,48.9,30.6,29.84,East,91,5.0,13.0,49,0.00,,,-99.99,Weather View 32 v60,2013-05-10 09:35:00,
2013-05-10 05:40:00,48.7,30.9,29.84,ENE,73,4.0,13.0,50,0.00,,,-99.99,Weather View 32 v60,2013-05-10 09:40:00,
2013-05-10 05:45:00,48.2,30.4,29.84,ENE,77,11.0,13.0,50,0.00,,,-99.99,Weather View 32 v60,2013-05-10 09:45:00,
2013-05-10 05:50:00,47.8,30.6,29.84,East,93,11.0,13.0,51,0.00,,,-99.99,Weather View 32 v60,2013-05-10 09:50:00,
2013-05-10 05:55:00,47.7,30.4,29.84,East,86,4.0,13.0,51,0.00,,,-99.99,Weather View 32 v60,2013-05-10 09:55:00,
2013-05-10 06:00:00,47.5,30.2,29.84,East,81,2.0,13.0,51,0.00,,,-99.99,Weather View 32 v60,2013-05-10 10:00:00,
2013-05-10 06:05:00,47.3,30.1,29.84,North,353,7.0,13.0,51,0.00,,,-99.99,Weather View 32 v60,2013-05-10 10:05:00,
2013-05-10 06:10:00,47.3,30.5,29.84,East,79,4.0,13.0,52,0.00,,,-99.99,Weather View 32 v60,2013-05-10 10:10:00,
2013-05-10 06:15:00,46.9,30.7,29.84,NNE,27,3.0,13.0,53,0.00,,,-99.99,Weather View 32 v60,2013-05-10 10:15:00,
2013-05-10 06:20:00,46.8,30.5,29.84,North,11,8.0,13.0,53,0.00,,,-99.99,Weather View 32 v60,2013-05-10 10:20:00,
2013-05-10 06:25:00,46.6,30.3,29.84,ENE,58,6.0,13.0,53,0.00,,,-99.99,Weather View 32 v60,2013-05-10 10:25:00,
2013-05-10 06:30:00,46.4,30.2,29.84,NE,52,3.0,13.0,53,0.00,,,-99.99,Weather View 32 v60,2013-05-10 10:30:00,
2013-05-10 06:35:00,46.2,30.5,29.84,ENE,74,0.0,13.0,54,0.00,,,-99.99,Weather View 32 v60,2013-05-10 10:35:00,
2013-05-10 06:40:00,46.2,30.5,29.84,ENE,74,2.0,13.0,54,0.00,,,-99.99,Weather View 32 v60,2013-05-10 10:40:00,
2013-05-10 06:45:00,46.2,30.5,29.84,East,79,4.0,11.0,54,0.00,,,-99.99,Weather View 32 v60,2013-05-10 10:45:00,
2013-05-10 06:50:00,46.0,30.3,29.84,ENE,70,4.0,11.0,54,0.00,,,-99.99,Weather View 32 v60,2013-05-10 10:50:00,
2013-05-10 07:00:00,45.5,30.2,29.84,NNW,344,3.0,11.0,55,0.00,,,-99.99,Weather View 32 v60,2013-05-10 11:00:00,
2013-05-10 07:05:00,45.3,30.1,29.84,NE,50,8.0,11.0,55,0.00,,,-99.99,Weather View 32 v60,2013-05-10 11:05:00,
2013-05-10 07:10:00,45.1,29.9,29.84,ENE,73,6.0,11.0,55,0.00,,,-99.99,Weather View 32 v60,2013-05-10 11:10:00,
2013-05-10 07:15:00,45.0,30.2,29.84,ENE,63,5.0,11.0,56,0.00,,,-99.99,Weather View 32 v60,2013-05-10 11:15:00,
2013-05-10 07:20:00,44.8,30.0,29.81,NE,42,5.0,11.0,56,0.00,,,-99.99,Weather View 32 v60,2013-05-10 11:20:00,
2013-05-10 07:30:00,44.6,29.9,29.81,NNE,26,6.0,11.0,56,0.00,,,-99.99,Weather View 32 v60,2013-05-10 11:30:00,
2013-05-10 07:40:00,44.2,29.9,29.84,NNE,15,4.0,11.0,57,0.00,,,-99.99,Weather View 32 v60,2013-05-10 11:40:00,
2013-05-10 07:45:00,44.1,29.8,29.84,ENE,76,6.0,13.0,57,0.00,,,-99.99,Weather View 32 v60,2013-05-10 11:45:00,
2013-05-10 07:50:00,44.1,30.2,29.84,NNE,31,4.0,13.0,58,0.00,,,-99.99,Weather View 32 v60,2013-05-10 11:50:00,
2013-05-10 07:55:00,43.9,30.0,29.84,ENE,70,4.0,13.0,58,0.00,,,-99.99,Weather View 32 v60,2013-05-10 11:55:00,
2013-05-10 08:05:00,43.7,30.3,29.84,ENE,62,6.0,13.0,59,0.00,,,-99.99,Weather View 32 v60,2013-05-10 12:05:00,
2013-05-10 08:10:00,43.5,30.1,29.84,ENE,57,0.0,13.0,59,0.00,,,-99.99,Weather View 32 v60,2013-05-10 12:10:00,
2013-05-10 08:15:00,43.5,30.5,29.84,ENE,63,5.0,13.0,60,0.00,,,-99.99,Weather View 32 v60,2013-05-10 12:15:00,
2013-05-10 08:20:00,43.3,30.4,29.84,NE,49,3.0,13.0,60,0.00,,,-99.99,Weather View 32 v60,2013-05-10 12:20:00,
2013-05-10 08:25:00,43.2,30.2,29.84,North,0,5.0,13.0,60,0.00,,,-99.99,Weather View 32 v60,2013-05-10 12:25:00,
2013-05-10 08:30:00,43.2,30.2,29.84,East,82,5.0,13.0,60,0.00,,,-99.99,Weather View 32 v60,2013-05-10 12:30:00,
2013-05-10 08:40:00,43.0,30.0,29.84,NE,36,6.0,13.0,60,0.00,,,-99.99,Weather View 32 v60,2013-05-10 12:40:00,
2013-05-10 08:45:00,42.8,29.9,29.84,NE,35,3.0,12.0,60,0.00,,,-99.99,Weather View 32 v60,2013-05-10 12:45:00,
2013-05-10 08:50:00,42.8,29.9,29.84,NNE,17,5.0,12.0,60,0.00,,,-99.99,Weather View 32 v60,2013-05-10 12:50:00,
2013-05-10 08:55:00,42.8,30.3,29.84,ENE,69,4.0,12.0,61,0.00,,,-99.99,Weather View 32 v60,2013-05-10 12:55:00,
2013-05-10 09:00:00,42.8,30.3,29.84,East,90,4.0,12.0,61,0.00,,,-99.99,Weather View 32 v60,2013-05-10 13:00:00,
2013-05-10 09:05:00,42.6,30.5,29.84,East,90,3.0,12.0,62,0.00,,,-99.99,Weather View 32 v60,2013-05-10 13:05:00,
2013-05-10 09:10:00,42.6,30.5,29.84,North,0,3.0,12.0,62,0.00,,,-99.99,Weather View 32 v60,2013-05-10 13:10:00,
2013-05-10 09:15:00,42.4,30.3,29.84,NNW,343,4.0,12.0,62,0.00,,,-99.99,Weather View 32 v60,2013-05-10 13:15:00,
2013-05-10 09:25:00,42.4,30.7,29.84,NE,41,4.0,12.0,63,0.00,,,-99.99,Weather View 32 v60,2013-05-10 13:25:00,
2013-05-10 09:30:00,42.6,30.9,29.84,North,7,3.0,11.0,63,0.00,,,-99.99,Weather View 32 v60,2013-05-10 13:30:00,
2013-05-10 09:35:00,42.4,30.7,29.84,NE,55,4.0,11.0,63,0.00,,,-99.99,Weather View 32 v60,2013-05-10 13:35:00,
2013-05-10 09:40:00,42.4,30.7,29.84,North,353,6.0,11.0,63,0.00,,,-99.99,Weather View 32 v60,2013-05-10 13:40:00,
2013-05-10 09:45:00,42.3,30.5,29.84,NE,34,4.0,11.0,63,0.00,,,-99.99,Weather View 32 v60,2013-05-10 13:45:00,
2013-05-10 09:50:00,42.3,30.5,29.84,NE,48,3.0,11.0,63,0.00,,,-99.99,Weather View 32 v60,2013-05-10 13:50:00,
2013-05-10 09:55:00,42.1,30.4,29.84,NNE,15,4.0,11.0,63,0.00,,,-99.99,Weather View 32 v60,2013-05-10 13:55:00,
2013-05-10 10:05:00,42.1,30.8,29.84,South,176,4.0,11.0,64,0.00,,,-99.99,Weather View 32 v60,2013-05-10 14:05:00,
2013-05-10 10:10:00,42.1,30.8,29.84,NE,53,3.0,10.0,64,0.00,,,-99.99,Weather View 32 v60,2013-05-10 14:10:00,
2013-05-10 10:15:00,41.9,30.6,29.84,North,10,6.0,10.0,64,0.00,,,-99.99,Weather View 32 v60,2013-05-10 14:15:00,
2013-05-10 10:20:00,41.9,31.0,29.84,North,0,5.0,10.0,65,0.00,,,-99.99,Weather View 32 v60,2013-05-10 14:20:00,
2013-05-10 10:25:00,41.7,30.8,29.84,NNE,28,6.0,10.0,65,0.00,,,-99.99,Weather View 32 v60,2013-05-10 14:25:00,
2013-05-10 10:30:00,41.7,30.8,29.84,NNE,29,3.0,10.0,65,0.00,,,-99.99,Weather View 32 v60,2013-05-10 14:30:00,
2013-05-10 10:35:00,41.7,30.8,29.84,NNE,14,3.0,10.0,65,0.00,,,-99.99,Weather View 32 v60,2013-05-10 14:35:00,
2013-05-10 10:40:00,41.7,30.8,29.84,North,10,2.0,13.0,65,0.00,,,-99.99,Weather View 32 v60,2013-05-10 14:40:00,
2013-05-10 10:45:00,41.5,30.6,29.84,North,357,5.0,13.0,65,0.00,,,-99.99,Weather View 32 v60,2013-05-10 14:45:00,
2013-05-10 10:55:00,41.5,30.6,29.84,North,10,5.0,13.0,65,0.00,,,-99.99,Weather View 32 v60,2013-05-10 14:55:00,
2013-05-10 11:00:00,41.5,30.6,29.84,North,6,4.0,13.0,65,0.00,,,-99.99,Weather View 32 v60,2013-05-10 15:00:00,
2013-05-10 11:05:00,41.4,30.5,29.84,NE,44,3.0,13.0,65,0.00,,,-99.99,Weather View 32 v60,2013-05-10 15:05:00,
2013-05-10 11:10:00,41.2,30.3,29.84,ENE,69,3.0,13.0,65,0.00,,,-99.99,Weather View 32 v60,2013-05-10 15:10:00,
2013-05-10 11:15:00,41.2,30.3,29.84,ENE,61,4.0,13.0,65,0.00,,,-99.99,Weather View 32 v60,2013-05-10 15:15:00,
2013-05-10 11:20:00,41.2,30.3,29.87,ENE,57,7.0,13.0,65,0.00,,,-99.99,Weather View 32 v60,2013-05-10 15:20:00,
2013-05-10 11:30:00,41.0,30.5,29.87,East,96,6.0,13.0,66,0.00,,,-99.99,Weather View 32 v60,2013-05-10 15:30:00,
2013-05-10 11:35:00,41.0,30.5,29.87,ENE,71,5.0,13.0,66,0.00,,,-99.99,Weather View 32 v60,2013-05-10 15:35:00,
2013-05-10 11:45:00,41.0,30.9,29.87,NNE,19,3.0,13.0,67,0.00,,,-99.99,Weather View 32 v60,2013-05-10 15:45:00,
2013-05-10 11:50:00,41.0,30.9,29.87,North,357,2.0,13.0,67,0.00,,,-99.99,Weather View 32 v60,2013-05-10 15:50:00,
2013-05-10 11:55:00,41.0,30.9,29.87,NNW,330,4.0,13.0,67,0.00,,,-99.99,Weather View 32 v60,2013-05-10 15:55:00,
2013-05-10 12:00:00,41.2,31.4,29.87,NNE,25,3.0,13.0,68,0.00,,,-99.99,Weather View 32 v60,2013-05-10 16:00:00,
2013-05-10 12:05:00,41.2,31.4,29.87,NNE,19,0.0,13.0,68,0.00,,,-99.99,Weather View 32 v60,2013-05-10 16:05:00,
2013-05-10 12:10:00,41.2,31.4,29.87,NNE,27,4.0,13.0,68,0.00,,,-99.99,Weather View 32 v60,2013-05-10 16:10:00,
2013-05-10 12:15:00,41.4,31.9,29.87,NE,46,4.0,13.0,69,0.00,,,-99.99,Weather View 32 v60,2013-05-10 16:15:00,
2013-05-10 12:25:00,41.4,32.3,29.87,East,98,3.0,13.0,70,0.00,,,-99.99,Weather View 32 v60,2013-05-10 16:25:00,
2013-05-10 12:35:00,41.5,32.8,29.87,North,350,6.0,11.0,71,0.00,,,-99.99,Weather View 32 v60,2013-05-10 16:35:00,
2013-05-10 12:40:00,41.5,32.8,29.87,North,0,3.0,11.0,71,0.00,,,-99.99,Weather View 32 v60,2013-05-10 16:40:00,
2013-05-10 12:45:00,41.7,33.0,29.87,NE,45,3.0,11.0,71,0.00,,,-99.99,Weather View 32 v60,2013-05-10 16:45:00,
2013-05-10 12:50:00,41.7,33.0,29.87,North,8,4.0,11.0,71,0.00,,,-99.99,Weather View 32 v60,2013-05-10 16:50:00,
2013-05-10 12:55:00,41.7,33.3,29.87,North,0,3.0,11.0,72,0.00,,,-99.99,Weather View 32 v60,2013-05-10 16:55:00,
2013-05-10 13:00:00,41.7,33.3,29.87,North,0,3.0,11.0,72,0.00,,,-99.99,Weather View 32 v60,2013-05-10 17:00:00,
2013-05-10 13:10:00,41.7,33.3,29.87,NE,34,5.0,11.0,72,0.00,,,-99.99,Weather View 32 v60,2013-05-10 17:10:00,
2013-05-10 13:15:00,41.7,33.3,29.87,SE,133,3.0,11.0,72,0.00,,,-99.99,Weather View 32 v60,2013-05-10 17:15:00,
2013-05-10 13:25:00,41.9,33.9,29.87,NNE,24,3.0,8.0,73,0.00,,,-99.99,Weather View 32 v60,2013-05-10 17:25:00,
2013-05-10 13:30:00,42.1,34.0,29.87,NE,56,3.0,11.0,73,0.00,,,-99.99,Weather View 32 v60,2013-05-10 17:30:00,
2013-05-10 13:35:00,42.1,34.4,29.84,North,357,4.0,11.0,74,0.00,,,-99.99,Weather View 32 v60,2013-05-10 17:35:00,
2013-05-10 13:40:00,42.3,34.6,29.84,East,91,5.0,11.0,74,0.00,,,-99.99,Weather View 32 v60,2013-05-10 17:40:00,
2013-05-10 13:45:00,42.4,34.7,29.84,NE,48,4.0,11.0,74,0.00,,,-99.99,Weather View 32 v60,2013-05-10 17:45:00,
2013-05-10 13:50:00,42.4,35.1,29.84,NNE,17,3.0,11.0,75,0.00,,,-99.99,Weather View 32 v60,2013-05-10 17:50:00,
2013-05-10 13:55:00,42.6,35.2,29.84,North,357,4.0,11.0,75,0.00,,,-99.99,Weather View 32 v60,2013-05-10 17:55:00,
2013-05-10 14:05:00,42.8,35.4,29.84,NW,318,4.0,11.0,75,0.00,,,-99.99,Weather View 32 v60,2013-05-10 18:05:00,
2013-05-10 14:10:00,43.0,35.6,29.84,North,357,5.0,11.0,75,0.00,,,-99.99,Weather View 32 v60,2013-05-10 18:10:00,
2013-05-10 14:15:00,43.0,35.6,29.84,WNW,299,3.0,11.0,75,0.00,,,-99.99,Weather View 32 v60,2013-05-10 18:15:00,
2013-05-10 14:20:00,43.0,35.9,29.87,NE,40,0.0,11.0,76,0.00,,,-99.99,Weather View 32 v60,2013-05-10 18:20:00,
2013-05-10 14:30:00,43.0,35.9,29.87,NE,46,2.0,11.0,76,0.00,,,-99.99,Weather View 32 v60,2013-05-10 18:30:00,
2013-05-10 14:35:00,43.0,35.9,29.87,ENE,63,3.0,10.0,76,0.00,,,-99.99,Weather View 32 v60,2013-05-10 18:35:00,
2013-05-10 14:40:00,43.0,35.9,29.87,NNE,16,3.0,10.0,76,0.00,,,-99.99,Weather View 32 v60,2013-05-10 18:40:00,
2013-05-10 14:45:00,43.0,35.6,29.87,NE,53,0.0,8.0,75,0.00,,,-99.99,Weather View 32 v60,2013-05-10 18:45:00,
2013-05-10 14:50:00,43.0,35.6,29.87,NNE,28,3.0,8.0,75,0.00,,,-99.99,Weather View 32 v60,2013-05-10 18:50:00,
2013-05-10 15:00:00,43.2,35.8,29.87,North,350,3.0,8.0,75,0.00,,,-99.99,Weather View 32 v60,2013-05-10 19:00:00,
2013-05-10 15:05:00,43.2,35.8,29.87,North,357,4.0,8.0,75,0.00,,,-99.99,Weather View 32 v60,2013-05-10 19:05:00,
2013-05-10 15:10:00,43.3,35.9,29.87,ENE,65,2.0,9.0,75,0.00,,,-99.99,Weather View 32 v60,2013-05-10 19:10:00,
2013-05-10 15:15:00,43.3,35.9,29.87,NNE,32,3.0,9.0,75,0.00,,,-99.99,Weather View 32 v60,2013-05-10 19:15:00,
2013-05-10 15:20:00,43.5,36.1,29.87,NE,45,4.0,9.0,75,0.00,,,-99.99,Weather View 32 v60,2013-05-10 19:20:00,
2013-05-10 15:25:00,43.5,36.1,29.87,North,357,5.0,9.0,75,0.00,,,-99.99,Weather View 32 v60,2013-05-10 19:25:00,
2013-05-10 15:30:00,43.5,36.1,29.87,NNE,32,3.0,9.0,75,0.00,,,-99.99,Weather View 32 v60,2013-05-10 19:30:00,
2013-05-10 15:35:00,43.5,36.1,29.87,NE,36,3.0,9.0,75,0.00,,,-99.99,Weather View 32 v60,2013-05-10 19:35:00,
2013-05-10 15:40:00,43.5,36.1,29.87,ENE,61,4.0,9.0,75,0.00,,,-99.99,Weather View 32 v60,2013-05-10 19:40:00,
2013-05-10 15:50:00,43.5,36.1,29.87,NE,51,3.0,9.0,75,0.00,,,-99.99,Weather View 32 v60,2013-05-10 19:50:00,
2013-05-10 15:55:00,43.5,36.1,29.87,ENE,67,4.0,9.0,75,0.00,,,-99.99,Weather View 32 v60,2013-05-10 19:55:00,
2013-05-10 16:00:00,43.5,36.1,29.87,NNE,17,0.0,9.0,75,0.00,,,-99.99,Weather View 32 v60,2013-05-10 20:00:00,
2013-05-10 16:10:00,43.5,36.1,29.87,NE,34,0.0,6.0,75,0.00,,,-99.99,Weather View 32 v60,2013-05-10 20:10:00,
2013-05-10 16:15:00,43.5,36.1,29.87,NE,41,4.0,6.0,75,0.00,,,-99.99,Weather View 32 v60,2013-05-10 20:15:00,
2013-05-10 16:20:00,43.5,35.8,29.87,ENE,68,3.0,6.0,74,0.00,,,-99.99,Weather View 32 v60,2013-05-10 20:20:00,
2013-05-10 16:25:00,43.5,35.8,29.87,ESE,113,3.0,7.0,74,0.00,,,-99.99,Weather View 32 v60,2013-05-10 20:25:00,
2013-05-10 16:30:00,43.5,35.8,29.87,NE,54,3.0,7.0,74,0.00,,,-99.99,Weather View 32 v60,2013-05-10 20:30:00,
2013-05-10 16:35:00,43.5,35.8,29.87,East,82,0.0,7.0,74,0.00,,,-99.99,Weather View 32 v60,2013-05-10 20:35:00,
2013-05-10 16:40:00,43.5,35.4,29.87,NNE,33,2.0,7.0,73,0.00,,,-99.99,Weather View 32 v60,2013-05-10 20:40:00,
2013-05-10 16:45:00,43.3,35.3,29.87,ENE,72,0.0,7.0,73,0.00,,,-99.99,Weather View 32 v60,2013-05-10 20:45:00,
2013-05-10 16:50:00,43.3,35.3,29.87,North,6,3.0,7.0,73,0.00,,,-99.99,Weather View 32 v60,2013-05-10 20:50:00,
2013-05-10 17:00:00,43.3,34.9,29.87,NNE,17,3.0,7.0,72,0.00,,,-99.99,Weather View 32 v60,2013-05-10 21:00:00,
2013-05-10 17:05:00,43.3,34.9,29.87,NNE,15,3.0,7.0,72,0.00,,,-99.99,Weather View 32 v60,2013-05-10 21:05:00,
2013-05-10 17:10:00,43.3,34.9,29.87,NNE,21,3.0,7.0,72,0.00,,,-99.99,Weather View 32 v60,2013-05-10 21:10:00,
2013-05-10 17:15:00,43.3,34.9,29.87,NE,50,4.0,7.0,72,0.00,,,-99.99,Weather View 32 v60,2013-05-10 21:15:00,
2013-05-10 17:20:00,43.3,34.9,29.87,North,353,5.0,7.0,72,0.00,,,-99.99,Weather View 32 v60,2013-05-10 21:20:00,
2013-05-10 17:25:00,43.3,34.9,29.87,North,8,4.0,7.0,72,0.00,,,-99.99,Weather View 32 v60,2013-05-10 21:25:00,
2013-05-10 17:30:00,43.3,34.9,29.87,NNE,29,4.0,6.0,72,0.00,,,-99.99,Weather View 32 v60,2013-05-10 21:30:00,
2013-05-10 17:35:00,43.3,34.6,29.87,ESE,103,0.0,6.0,71,0.00,,,-99.99,Weather View 32 v60,2013-05-10 21:35:00,
2013-05-10 17:40:00,43.2,34.4,29.87,North,11,3.0,6.0,71,0.00,,,-99.99,Weather View 32 v60,2013-05-10 21:40:00,
2013-05-10 17:45:00,43.2,34.4,29.87,NE,51,4.0,6.0,71,0.00,,,-99.99,Weather View 32 v60,2013-05-10 21:45:00,
2013-05-10 17:50:00,43.2,34.4,29.87,NNE,29,3.0,6.0,71,0.00,,,-99.99,Weather View 32 v60,2013-05-10 21:50:00,
2013-05-10 18:00:00,43.2,34.0,29.87,North,357,3.0,6.0,70,0.00,,,-99.99,Weather View 32 v60,2013-05-10 22:00:00,
2013-05-10 18:05:00,43.2,34.0,29.87,North,0,4.0,6.0,70,0.00,,,-99.99,Weather View 32 v60,2013-05-10 22:05:00,
2013-05-10 18:10:00,43.2,34.0,29.87,North,357,3.0,6.0,70,0.00,,,-99.99,Weather View 32 v60,2013-05-10 22:10:00,
2013-05-10 18:15:00,43.2,34.0,29.87,NNE,20,0.0,6.0,70,0.00,,,-99.99,Weather View 32 v60,2013-05-10 22:15:00,
2013-05-10 18:18:00,43.2,34.0,29.87,NNE,20,0.0,6.0,70,0.00,,,-99.99,Weather View 32 v60,2013-05-10 22:18:00,
2013-05-10 18:25:00,43.3,34.2,29.87,North,3,4.0,6.0,70,0.00,,,-99.99,Weather View 32 v60,2013-05-10 22:25:00,
2013-05-10 18:30:00,43.3,34.2,29.87,North,353,0.0,6.0,70,0.00,,,-99.99,Weather View 32 v60,2013-05-10 22:30:00,
2013-05-10 18:35:00,43.3,34.2,29.87,NNE,18,3.0,6.0,70,0.00,,,-99.99,Weather View 32 v60,2013-05-10 22:35:00,
2013-05-10 18:40:00,43.3,34.2,29.87,NW,304,3.0,6.0,70,0.00,,,-99.99,Weather View 32 v60,2013-05-10 22:40:00,
2013-05-10 18:50:00,43.2,33.7,29.87,ENE,65,3.0,7.0,69,0.00,,,-99.99,Weather View 32 v60,2013-05-10 22:50:00,
2013-05-10 18:55:00,43.2,33.7,29.87,NE,55,3.0,7.0,69,0.00,,,-99.99,Weather View 32 v60,2013-05-10 22:55:00,
2013-05-10 19:00:00,43.2,33.3,29.87,North,353,0.0,7.0,68,0.00,,,-99.99,Weather View 32 v60,2013-05-10 23:00:00,
2013-05-10 19:05:00,43.3,33.5,29.87,North,353,4.0,7.0,68,0.00,,,-99.99,Weather View 32 v60,2013-05-10 23:05:00,
2013-05-10 19:10:00,43.3,33.5,29.87,NE,42,3.0,7.0,68,0.00,,,-99.99,Weather View 32 v60,2013-05-10 23:10:00,
2013-05-10 19:15:00,43.3,33.5,29.87,NNE,26,2.0,7.0,68,0.00,,,-99.99,Weather View 32 v60,2013-05-10 23:15:00,
2013-05-10 19:20:00,43.3,33.5,29.87,North,0,3.0,7.0,68,0.00,,,-99.99,Weather View 32 v60,2013-05-10 23:20:00,
2013-05-10 19:30:00,43.3,33.1,29.87,ENE,58,6.0,8.0,67,0.00,,,-99.99,Weather View 32 v60,2013-05-10 23:30:00,
2013-05-10 19:35:00,43.3,33.1,29.87,NNW,335,2.0,8.0,67,0.00,,,-99.99,Weather View 32 v60,2013-05-10 23:35:00,
2013-05-10 19:40:00,43.3,33.1,29.87,ENE,75,4.0,8.0,67,0.00,,,-99.99,Weather View 32 v60,2013-05-10 23:40:00,
2013-05-10 19:45:00,43.3,33.1,29.87,ENE,69,0.0,8.0,67,0.00,,,-99.99,Weather View 32 v60,2013-05-10 23:45:00,
2013-05-10 19:50:00,43.3,33.1,29.87,NNE,25,3.0,8.0,67,0.00,,,-99.99,Weather View 32 v60,2013-05-10 23:50:00,
2013-05-10 19:55:00,43.3,33.1,29.87,North,2,4.0,8.0,67,0.00,,,-99.99,Weather View 32 v60,2013-05-10 23:55:00,
2013-05-10 20:00:00,43.3,33.1,29.87,North,353,0.0,8.0,67,0.00,,,-99.99,Weather View 32 v60,2013-05-11 00:00:00,
2013-05-10 20:05:00,43.3,33.1,29.87,NNE,23,3.0,8.0,67,0.00,,,-99.99,Weather View 32 v60,2013-05-11 00:05:00,
2013-05-10 20:10:00,43.3,33.1,29.87,North,357,2.0,8.0,67,0.00,,,-99.99,Weather View 32 v60,2013-05-11 00:10:00,
2013-05-10 20:15:00,43.3,33.1,29.87,North,357,0.0,8.0,67,0.00,,,-99.99,Weather View 32 v60,2013-05-11 00:15:00,
2013-05-10 20:25:00,43.3,33.1,29.87,North,353,0.0,8.0,67,0.00,,,-99.99,Weather View 32 v60,2013-05-11 00:25:00,
2013-05-10 20:30:00,43.3,33.1,29.87,North,0,0.0,8.0,67,0.00,,,-99.99,Weather View 32 v60,2013-05-11 00:30:00,
2013-05-10 20:35:00,43.3,33.1,29.87,North,353,0.0,5.0,67,0.00,,,-99.99,Weather View 32 v60,2013-05-11 00:35:00,
2013-05-10 20:40:00,43.3,33.1,29.87,NNE,13,3.0,5.0,67,0.00,,,-99.99,Weather View 32 v60,2013-05-11 00:40:00,
2013-05-10 20:45:00,43.3,33.5,29.87,NW,324,0.0,5.0,68,0.00,,,-99.99,Weather View 32 v60,2013-05-11 00:45:00,
2013-05-10 20:50:00,43.3,33.5,29.90,NNE,31,0.0,5.0,68,0.00,,,-99.99,Weather View 32 v60,2013-05-11 00:50:00,
2013-05-10 20:55:00,43.3,33.5,29.90,NNW,334,0.0,5.0,68,0.00,,,-99.99,Weather View 32 v60,2013-05-11 00:55:00,
2013-05-10 21:00:00,43.3,33.5,29.90,North,357,0.0,5.0,68,0.00,,,-99.99,Weather View 32 v60,2013-05-11 01:00:00,
2013-05-10 21:05:00,43.3,33.5,29.90,NNE,23,0.0,5.0,68,0.00,,,-99.99,Weather View 32 v60,2013-05-11 01:05:00,
2013-05-10 21:10:00,43.3,33.5,29.90,NNE,23,4.0,5.0,68,0.00,,,-99.99,Weather View 32 v60,2013-05-11 01:10:00,
2013-05-10 21:15:00,43.3,33.5,29.90,NNW,335,2.0,5.0,68,0.00,,,-99.99,Weather View 32 v60,2013-05-11 01:15:00,
2013-05-10 21:20:00,43.3,33.8,29.90,North,0,2.0,5.0,69,0.00,,,-99.99,Weather View 32 v60,2013-05-11 01:20:00,
2013-05-10 21:30:00,43.3,33.8,29.90,North,357,0.0,6.0,69,0.00,,,-99.99,Weather View 32 v60,2013-05-11 01:30:00,
2013-05-10 21:40:00,43.2,33.7,29.90,NNE,18,3.0,6.0,69,0.00,,,-99.99,Weather View 32 v60,2013-05-11 01:40:00,
2013-05-10 21:45:00,43.2,33.7,29.90,NNW,330,0.0,6.0,69,0.00,,,-99.99,Weather View 32 v60,2013-05-11 01:45:00,
2013-05-10 21:50:00,43.2,33.7,29.90,NNE,29,2.0,6.0,69,0.00,,,-99.99,Weather View 32 v60,2013-05-11 01:50:00,
2013-05-10 21:55:00,43.0,33.5,29.90,NE,47,0.0,6.0,69,0.00,,,-99.99,Weather View 32 v60,2013-05-11 01:55:00,
2013-05-10 22:00:00,43.0,33.5,29.90,NW,316,3.0,6.0,69,0.00,,,-99.99,Weather View 32 v60,2013-05-11 02:00:00,
2013-05-10 22:05:00,43.0,33.1,29.90,NE,55,0.0,6.0,68,0.00,,,-99.99,Weather View 32 v60,2013-05-11 02:05:00,
2013-05-10 22:15:00,43.0,33.1,29.90,NNE,29,2.0,6.0,68,0.00,,,-99.99,Weather View 32 v60,2013-05-11 02:15:00,
2013-05-10 22:20:00,43.0,33.1,29.90,North,353,0.0,6.0,68,0.00,,,-99.99,Weather View 32 v60,2013-05-11 02:20:00,
2013-05-10 22:25:00,42.8,33.0,29.90,North,357,3.0,6.0,68,0.00,,,-99.99,Weather View 32 v60,2013-05-11 02:25:00,
2013-05-10 22:30:00,42.8,33.0,29.90,NW,322,3.0,6.0,68,0.00,,,-99.99,Weather View 32 v60,2013-05-11 02:30:00,
2013-05-10 22:35:00,42.8,33.0,29.90,North,353,0.0,6.0,68,0.00,,,-99.99,Weather View 32 v60,2013-05-11 02:35:00,
2013-05-10 22:40:00,42.8,33.3,29.90,North,5,2.0,6.0,69,0.00,,,-99.99,Weather View 32 v60,2013-05-11 02:40:00,
2013-05-10 22:45:00,42.8,33.3,29.90,North,353,2.0,6.0,69,0.00,,,-99.99,Weather View 32 v60,2013-05-11 02:45:00,
2013-05-10 22:50:00,42.8,33.3,29.90,North,353,0.0,6.0,69,0.00,,,-99.99,Weather View 32 v60,2013-05-11 02:50:00,
2013-05-10 22:55:00,42.6,33.2,29.90,North,0,0.0,6.0,69,0.00,,,-99.99,Weather View 32 v60,2013-05-11 02:55:00,
2013-05-10 23:00:00,42.6,33.2,29.90,NNW,342,0.0,6.0,69,0.00,,,-99.99,Weather View 32 v60,2013-05-11 03:00:00,
2013-05-10 23:05:00,42.6,33.2,29.90,North,0,0.0,6.0,69,0.00,,,-99.99,Weather View 32 v60,2013-05-11 03:05:00,
2013-05-10 23:10:00,42.6,33.2,29.90,North,0,0.0,6.0,69,0.00,,,-99.99,Weather View 32 v60,2013-05-11 03:10:00,
2013-05-10 23:15:00,42.6,33.2,29.90,North,0,3.0,6.0,69,0.00,,,-99.99,Weather View 32 v60,2013-05-11 03:15:00,
2013-05-10 23:20:00,42.6,33.2,29.90,NNW,346,0.0,6.0,69,0.00,,,-99.99,Weather View 32 v60,2013-05-11 03:20:00,
2013-05-10 23:25:00,42.6,33.2,29.90,NE,52,0.0,5.0,69,0.00,,,-99.99,Weather View 32 v60,2013-05-11 03:25:00,
2013-05-10 23:30:00,42.4,32.6,29.90,NNW,340,3.0,6.0,68,0.00,,,-99.99,Weather View 32 v60,2013-05-11 03:30:00,
2013-05-10 23:35:00,42.4,32.6,29.90,NE,56,0.0,6.0,68,0.00,,,-99.99,Weather View 32 v60,2013-05-11 03:35:00,
2013-05-10 23:40:00,42.3,32.4,29.90,NNW,338,0.0,6.0,68,0.00,,,-99.99,Weather View 32 v60,2013-05-11 03:40:00,
2013-05-10 23:45:00,42.3,32.4,29.90,NNW,338,0.0,6.0,68,0.00,,,-99.99,Weather View 32 v60,2013-05-11 03:45:00,
2013-05-10 23:50:00,42.3,32.1,29.90,NNW,338,3.0,6.0,67,0.00,,,-99.99,Weather View 32 v60,2013-05-11 03:50:00,
2013-05-10 23:55:00,42.1,31.9,29.90,North,353,3.0,6.0,67,0.00,,,-99.99,Weather View 32 v60,2013-05-11 03:55:00,